Volver al catálogo

FENGYUN 1C DEB

ActivoPO
NORAD 35153·DEBRIS·🇨🇳 China

Lanzado May 10, 1999 desde Taiyuan Satellite Launch Center

Loading…

Próximos Pases (próximas 24 horas)

TLE

ActualizadoSource: Space-Track

Época: Sep 13, 2026, 12:19 UTC

1 35153U 99025DMH 26256.51321771  .00002341  00000-0  28542-3 0  9994
2 35153  98.8869 180.2609 0164672 303.1743  55.3760 14.75415052 12542

Sigue FENGYUN 1C DEB en tiempo real con AllMySat

Download on the App Store